TimePDT,TemperatureF,Dew PointF,Humidity,Sea Level PressureIn,VisibilityMPH,Wind Direction,Wind SpeedMPH,Gust SpeedMPH,PrecipitationIn,Events,Conditions,WindDirDegrees,DateUTC
12:53 AM,43.0,34.0,71,29.96,10.0,Calm,Calm,-,N/A,,Clear,0,2013-06-15 07:53:00
1:53 AM,41.0,32.0,70,29.96,10.0,South,3.5,-,N/A,,Clear,180,2013-06-15 08:53:00
2:53 AM,39.0,30.9,73,29.95,10.0,South,3.5,-,N/A,,Clear,190,2013-06-15 09:53:00
3:53 AM,37.0,30.9,79,29.95,10.0,South,3.5,-,N/A,,Clear,180,2013-06-15 10:53:00
4:53 AM,36.0,28.9,76,29.96,10.0,Calm,Calm,-,N/A,,Clear,0,2013-06-15 11:53:00
5:53 AM,35.1,28.0,76,29.97,10.0,Calm,Calm,-,N/A,,Clear,0,2013-06-15 12:53:00
6:53 AM,37.9,30.0,73,29.98,10.0,Calm,Calm,-,N/A,,Clear,0,2013-06-15 13:53:00
7:53 AM,51.1,33.1,50,29.96,10.0,Calm,Calm,-,N/A,,Clear,0,2013-06-15 14:53:00
8:53 AM,61.0,28.0,29,29.94,10.0,East,3.5,-,N/A,,Clear,80,2013-06-15 15:53:00
9:53 AM,64.9,32.0,29,29.94,10.0,NNE,6.9,-,N/A,,Clear,30,2013-06-15 16:53:00
10:53 AM,68.0,36.0,31,29.94,10.0,Variable,3.5,-,N/A,,Clear,0,2013-06-15 17:53:00
11:53 AM,66.9,30.0,25,29.95,10.0,NNE,8.1,-,N/A,,Clear,20,2013-06-15 18:53:00
12:53 PM,71.1,24.1,17,29.95,10.0,NNE,11.5,-,N/A,,Clear,30,2013-06-15 19:53:00
1:53 PM,73.9,25.0,16,29.95,10.0,Variable,5.8,-,N/A,,Clear,0,2013-06-15 20:53:00
2:53 PM,73.0,24.1,16,29.95,10.0,Variable,4.6,19.6,N/A,,Clear,0,2013-06-15 21:53:00
3:53 PM,73.0,26.1,17,29.96,10.0,SSW,10.4,-,N/A,,Clear,210,2013-06-15 22:53:00
4:53 PM,72.0,26.1,18,29.96,10.0,Variable,5.8,20.7,N/A,,Clear,0,2013-06-15 23:53:00
5:53 PM,70.0,28.0,21,29.97,10.0,Variable,5.8,-,N/A,,Clear,0,2013-06-16 00:53:00
6:53 PM,66.9,30.0,25,29.99,10.0,SSW,8.1,-,N/A,,Clear,200,2013-06-16 01:53:00
7:53 PM,62.1,30.0,30,29.98,10.0,SSW,4.6,-,N/A,,Clear,210,2013-06-16 02:53:00
8:53 PM,55.9,30.9,39,29.99,10.0,Calm,Calm,-,N/A,,Clear,0,2013-06-16 03:53:00
9:53 PM,54.0,30.9,41,30.01,10.0,SSW,4.6,-,N/A,,Clear,210,2013-06-16 04:53:00
10:53 PM,48.9,33.1,54,30.02,10.0,South,3.5,-,N/A,,Clear,190,2013-06-16 05:53:00
11:53 PM,46.9,30.9,54,30.04,10.0,SW,4.6,-,N/A,,Clear,220,2013-06-16 06:53:00